Regional Weather Roundup
Issued by NWS

Home | Current Version | Previous Version | Graphics & Text | Print | Product List | Glossary On
Versions: 1 2 3 4 5 6 7 8 9 10 11 12 13 14 15 16 17 18 19 20 21 22 23 24 25 26 27 28 29 30 31 32 33 34 35 36 37 38 39 40 41 42 43 44 45 46 47 48 49 50
000
ASUS43 KTOP 210508
RWRKS

WEATHER ROUNDUP FOR KANSAS
NATIONAL WEATHER SERVICE GOODLAND KS
1100 PM CST MON FEB 20 2017

NOTE:  "FAIR" INDICATES FEW OR NO CLOUDS BELOW 12,000 FEET WITH NO
SIGNIFICANT WEATHER AND/OR OBSTRUCTIONS TO VISIBILITY.

KSZ001>006-013>018-027>032-041>047-210600-
NORTHWEST KANSAS

CITY           SKY/WX    TMP DP  RH WIND       PRES   REMARKS
GOODLAND       CLOUDY    45  15  30 S10       30.01F
HAYS           CLEAR     41  31  67 NW8       30.01R
HILL CITY      CLEAR     36  27  69 W6        30.02R
RUSSELL        CLEAR     39  32  76 CALM      29.98R
$$

KSZ061>065-074>080-084>089-210600-
SOUTHWEST KANSAS

CITY           SKY/WX    TMP DP  RH WIND       PRES   REMARKS
DODGE CITY     CLEAR     38  25  59 NW8       30.03R
ELKHART          N/A     42  10  27 CALM        N/A
GARDEN CITY    CLOUDY    35  18  49 NW8       30.04S
GREAT BEND     CLEAR     39  32  76 NW7       30.00R
LIBERAL        CLEAR     36  12  38 NW5       30.05F
PRATT          CLEAR     38  32  77 N8        30.00R
$$

KSZ066>073-081>083-090>101-210600-
SOUTHEAST KANSAS

CITY           SKY/WX    TMP DP  RH WIND       PRES   REMARKS
CHANUTE        MOCLDY    51  49  92 W3        29.92S
COFFEYVILLE    CLOUDY    51  50  96 CALM      29.92S
HUTCHINSON     CLEAR     53  38  56 N13       29.96S
MEDICINE LODGE   N/A     50  37  61 N8        29.97R
NEWTON         CLEAR     50  43  77 N13       29.96R
PARSONS        CLOUDY    49  48  97 CALM      29.93S
WICHITA INTL   CLEAR     52  43  71 NW13      29.95R
WICHITA JABRA  CLEAR     50  44  80 N12       29.94S
WICHITA MCCONL CLEAR     53  44  70 N10       29.94S
WINFIELD       FOG       44  44 100 W6        29.93F VSB 1/2
$$

KSZ007>012-019>026-033>040-048>060-102>105-210600-
NORTHEAST KANSAS

CITY           SKY/WX    TMP DP  RH WIND       PRES   REMARKS
CONCORDIA      CLEAR     46  38  73 CALM      29.97S
EMPORIA        CLEAR     48  48 100 NW7       29.93S
LAWRENCE       CLOUDY    55  52  89 CALM      29.92F
MANHATTAN      CLEAR     49  44  83 CALM      29.96R
MARYSVILLE     CLEAR     45  41  87 CALM      29.95F
OLATHE IND     CLOUDY    57  51  80 W7        29.93R
OLATHE EXE     PTCLDY    57  53  86 W7        29.92R
SALINA         CLEAR     47  38  71 N5        29.98R
TOPEKA BILLARD PTCLDY    54  49  83 NW6       29.92F
TOPEKA FORBES  CLOUDY    51  49  92 NW8       29.92F
$$




USA.gov is the U.S. government's official web portal to all federal, state and local government web resources and services.